Regional Weather Roundup
Issued by NWS Charleston, SC

Current Version | Previous Version | Graphics & Text | Print | Product List | Glossary On
Versions: 1 2 3 4 5 6 7 8 9 10 11 12 13 14 15 16 17 18 19 20 21 22 23 24 25 26 27 28 29 30 31 32 33 34 35 36 37 38 39 40 41 42 43 44 45 46 47 48 49 50
083
ASUS42 KCHS 281827
RWRCHS

REGIONAL WEATHER ROUNDUP
NATIONAL WEATHER SERVICE CHARLESTON SC
200 PM EDT WED JUN 28 2017

NOTE: "FAIR" INDICATES FEW OR NO CLOUDS BELOW 12,000 FEET WITH NO
SIGNIFICANT WEATHER AND/OR OBSTRUCTIONS TO VISIBILITY.

NOT ALL STATIONS ARE QUALITY CONTROLLED. USE DATA WITH CAUTION...
ESPECIALLY DEWPOINT OBSERVATIONS.

SCZ027-030-031-034>040-042>050-281900-
...SOUTHEAST SOUTH CAROLINA...

CITY           SKY/WX    TMP DP  RH WIND       PRES   REMARKS
N CHARLESTON   PTSUNNY   84  62  47 E12       30.16F
6HR MIN TEMP:  73; 6HR MAX TEMP:  86;

WATERFRONT PRK   N/A     81  68  64 E12       30.15S
JOHNS ISLAND   MOCLDY    84  68  58 NE14G22   30.16F
PINOPOLIS        N/A     81  63  54 E6        30.11F
MONCKS CORNER  FAIR      84  57  39 E9        30.16F
SUMMERVILLE    FAIR      84  63  48 NE5       30.17F
BEAUFORT MCAS  MOSUNNY   85  71  63 E13G20    30.16S HX  90
6HR MIN TEMP:  75; 6HR MAX TEMP:  85;

BEAUFORT ARPT  FAIR      82  70  65 E14       30.15F
HILTON HEAD IS MOSUNNY   84  70  61 NE13      30.17S
WALTERBORO     CLOUDY    86  64  48 E7        30.16F
ALLENDALE      FAIR      84  64  51 SE8       30.14F

...SOUTHERN MIDLANDS AND PEE DEE...

CITY           SKY/WX    TMP DP  RH WIND       PRES   REMARKS
GEORGETOWN     FAIR      82  61  47 E9        30.18F
KINGSTREE      FAIR      82  50  32 E5        30.17F
ORANGEBURG     SUNNY     85  57  38 VRB5      30.18F
6HR MIN TEMP:  71; 6HR MAX TEMP:  85;

BARNWELL       CLOUDY    86  64  48 E9        30.16F
AIKEN          FAIR      84  59  42 SE8       30.20F
MANNING        FAIR      84  59  42 SE10G23   30.17F
COLUMBIA       MOSUNNY   85  55  35 E10       30.17S
6HR MIN TEMP:  73; 6HR MAX TEMP:  86;

SUMTER         MOSUNNY   85  53  33 SE7       30.16S
6HR MIN TEMP:  70; 6HR MAX TEMP:  86;

FLORENCE       SUNNY     85  53  33 VRB6      30.19F
6HR MIN TEMP:  69; 6HR MAX TEMP:  85;

MYRTLE BEACH   SUNNY     82  63  51 E13       30.19F
N MYRTLE BEACH SUNNY     82  62  50 SE12      30.18S
6HR MIN TEMP:  72; 6HR MAX TEMP:  83;


$$

GAZ063-065-086>088-099>101-113>116-118-119-134>141-150-281900-
...SOUTHEAST GEORGIA...

CITY           SKY/WX    TMP DP  RH WIND       PRES   REMARKS
SAVANNAH ARPT  CLOUDY    85  67  54 E13G21    30.15F
6HR MIN TEMP:  74; 6HR MAX TEMP:  88;

HUNTER AAF     PTSUNNY   86  70  58 NE13      30.13S HX  90
6HR MIN TEMP:  75; 6HR MAX TEMP:  86;

FORT STEWART   PTSUNNY   85  66  52 E10G18    30.13S
6HR MIN TEMP:  72; 6HR MAX TEMP:  85;

STATESBORO     PTSUNNY   85  67  54 SE8       30.14F
SYLVANIA       MOCLDY    85  70  61 E7        30.16F
CLAXTON        FAIR      84  65  53 E8G17     30.15F

...CSRA...CENTRAL AND FAR SOUTHEAST GEORGIA...

CITY           SKY/WX    TMP DP  RH WIND       PRES   REMARKS
THOMSON        MOSUNNY   85  63  46 S8        30.20S
AUGUSTA-BUSH   MOSUNNY   89  64  43 SE12      30.14F HX  90
6HR MIN TEMP:  73; 6HR MAX TEMP:  89;

AUGUSTA-DANIEL PTSUNNY   86  58  38 E8        30.16F
SWAINSBORO     MOCLDY    86  66  51 SE10G16   30.15F
VIDALIA        CLOUDY    84  68  58 E13       30.15F
EASTMAN        FAIR      89  52  28 SE12      30.15F
HAZLEHURST     MOCLDY    87  71  59 NE8       30.12F HX  92
ALMA           PTSUNNY   87  69  54 NE5G16    30.12F HX  91
6HR MIN TEMP:  71; 6HR MAX TEMP:  87;

WAYCROSS       PTSUNNY   86  75  70 SE10      30.12S HX  94
JESUP          FAIR      86  64  48 E12       30.13F
BAXLEY         PTSUNNY   88  73  62 E9        30.12F HX  96
BRUNSWICK      CLOUDY    82  73  74 E16       30.14S
SAINT SIMONS   CLOUDY    83  72  69 NE12      30.13S
6HR MIN TEMP:  76; 6HR MAX TEMP:  85;


$$

SCZ027-028-034-036>038-045-046-048>050-GAZ119-141-281900-
...LAKE AND SUPPLEMENTAL COASTAL OBSERVATIONS...

STATION/POSITION TIME  TEMP    WIND        PRES    WAVE   SWELL
                       AIR SEA DIR/SP/G            HT/PER HT/PER/DIR
                 (UTC) (F)     (DEG/KT/KT) (MB)    (FT/S) (FT/S/D)
WINYAH BAY       1745   79      70/ 11     1022.0S
LAKE MURRAY      1820   83     140/  4/ 11 1020.7
ACE BASIN NERRS  1730   84      70/  5     1022.0S
FORT PULASKI     1800   81 83   80/ 14/ 18 1021.5
SAPELO ISLAND    1800   83      60/ 11     1020.0

$$

ANZ835-935-AMZ111-154-330-350-352-354-370-450-454-472-281900-
...C-MAN AND BUOY OBSERVATIONS...

STATION/POSITION TIME  TEMP    WIND        PRES    WAVE   SWELL
                       AIR SEA DIR/SP/G            HT/PER HT/PER/DIR
                 (UTC) (F)     (DEG/KT/KT) (MB)    (FT/S) (FT/S/D)
BUOY 41004       1810   80 80   60/ 16/ 17 1020.5
BUOY 41008       1750   81 82   70/ 16/ 17 1019.8F   3/ 4   2/110/ 8
FOLLY BEACH CMAN 1800   81      60/ 15/ 18 1022.0F
CAPERS NEARSHORE 1808   85 83   70/ 14/ 17 1021.1R
FRIPP NEARSHORE  1808   81 83   80/ 16/ 19 1020.5F


STATION/POSITION TIME  TEMP    WIND        PRES    WAVE   SWELL
                       AIR SEA DIR/SP/G            HT/PER HT/PER/DIR
                 (UTC) (F)     (DEG/KT/KT) (MB)    (FT/S) (FT/S/D)
5E ST. MARYS GA  1800      80                N/A     3/ 4
FRYING PAN BUOY  1810   78 80   40/ 12/ 14 1021.1
BUOY 41025       1750   77 81   30/  8/ 10 1021.9R   2/ 6   2/ 70/ 6
CAPE LOOKOUT NC  1800   78      60/ 12/ 13 1021.6F
BUOY 41002       1750   80 81   60/ 12/ 14 1019.5R   3/ 7   2/170/ 7
BUOY 41010       1810   81 84   80/ 10/ 12 1017.9
ST AUGUSTINE FL  1800   80 80   60/ 10/ 10 1019.5S


$$




USA.gov is the U.S. government's official web portal to all federal, state and local government web resources and services.